TAP1928 LPPT-LPPR

Flight info

Callsign TAP1928
Flight time N/A
Altitude 24000
Route IXIDA DCT ABLEG
Aircraft A21N/M-SDE3FGHIRWY/LB1

Departure

Time 2026-05-05 12:33
Airport Lisbon Humberto Delgado Airport (LPPT)

Arrival

Time N/A
Airport Francisco de Sá Carneiro Airport (LPPR)
Time Latitude Longitude Altitude Speed Heading
2026-05-05 12:24 38.76718 -9.13960 343 ft 0 kts 78°
2026-05-05 12:26 38.76714 -9.13990 353 ft 4 kts 85°
2026-05-05 12:26 38.76714 -9.14024 350 ft 4 kts 99°
2026-05-05 12:27 38.76722 -9.14054 349 ft 4 kts 140°
2026-05-05 12:27 38.76731 -9.14061 353 ft 0 kts 168°
2026-05-05 12:30 38.76718 -9.14058 350 ft 5 kts 168°
2026-05-05 12:30 38.76673 -9.14046 343 ft 6 kts 168°
2026-05-05 12:30 38.76635 -9.14058 352 ft 7 kts 206°
2026-05-05 12:31 38.76584 -9.14113 348 ft 11 kts 225°
2026-05-05 12:31 38.76576 -9.14205 338 ft 12 kts 278°
2026-05-05 12:31 38.76613 -9.14305 335 ft 14 kts 295°
2026-05-05 12:31 38.76657 -9.14380 334 ft 2 kts 353°
2026-05-05 12:32 38.76669 -9.14373 334 ft 2 kts 18°
2026-05-05 12:32 38.76781 -9.14319 335 ft 47 kts 23°
2026-05-05 12:32 38.77280 -9.14047 362 ft 106 kts 24°
2026-05-05 12:32 38.78115 -9.13606 369 ft 151 kts 21°
2026-05-05 12:33 38.79181 -9.13023 486 ft 175 kts 18°
2026-05-05 12:33 38.80304 -9.12435 1065 ft 177 kts 19°
2026-05-05 12:33 38.81443 -9.11815 1749 ft 173 kts 19°
2026-05-05 12:33 38.82495 -9.11013 2058 ft 188 kts 27°
2026-05-05 12:34 38.83699 -9.10082 2241 ft 212 kts 26°
2026-05-05 12:34 38.85050 -9.09047 2607 ft 248 kts 28°
2026-05-05 12:34 38.86551 -9.07889 3699 ft 250 kts 27°
2026-05-05 12:34 38.87968 -9.06779 4007 ft 228 kts 28°
2026-05-05 12:35 38.89164 -9.05841 4668 ft 171 kts 27°
2026-05-05 12:35 38.90129 -9.05103 4559 ft 171 kts 29°
2026-05-05 12:35 38.91259 -9.03907 4622 ft 215 kts 42°
2026-05-05 12:35 38.92161 -9.02582 6361 ft 187 kts 46°
2026-05-05 12:36 38.93085 -9.00919 5099 ft 293 kts 64°
2026-05-05 12:36 38.93936 -8.97950 3597 ft 391 kts 70°
2026-05-05 12:36 38.94425 -8.95832 5749 ft 310 kts 71°